Location: Unspecified
(0.0000°N, 0.0000°E)
Time: 01:23:03
(UTC+00:00)

OTV 5 (USA 277) - Visible Passes

Search period start: 21 October 2017 00:00
Search period end: 31 October 2017 00:00
Orbit: 404 x 417 km, 43.0° (Epoch: 07 September)

Date Brightness Start Highest point End Pass type
(mag) Time Alt. Az. Time Alt. Az. Time Alt. Az.
27 Oct ? 19:21:55 10° NW 19:23:11 21° NW 19:23:11 21° NW visible
28 Oct ? 18:31:06 10° NNW 18:34:16 38° NE 18:36:16 19° ESE visible
29 Oct ? 19:17:54 10° W 19:20:23 19° SW 19:22:30 12° S visible
30 Oct ? 05:16:02 10° SSE 05:17:43 13° SE 05:19:24 10° ESE visible
30 Oct ? 18:26:10 10° WNW 18:29:21 39° SW 18:32:31 10° SSE visible
